STARLINK-36524, 67452

Orbit data source: Space-Track

STARLINK-36524, 67452 is a payload satellite owned by SpaceX/Seattle (US) in LEO that was launched on Wed, 14 Jan 2026 UTC via an FALCON 9 launch vehicle from the Air Force Eastern Test Range (AFETR). Payload-class satellites include a variety of spacecraft equipped with specific instruments for various scientific and technological missions. These include communications satellites like Starlink; space stations such as the ISS; scientific satellites like the Hubble; Earth observation satellites from companies like Planet Labs, Umbra, and HawkEye 360; GPS; miniature CubeSats for education and research; and military/defense satellites.

Loading next visibility...
Identifier
67452, 2026-008H
Orbit
LEO
Country
Flag of USUS
Related business
Manufacturer
SpaceX/Seattle
Mission
Operational Commercial Communications
Bus & Motor
STARLINK V2MO, Unknown motor
Mass
575 kg wet, ~530 kg dry
Launch date (UTC)
2026-01-14 (5 months ago)
Launch vehicle
FALCON 9
Launch site
Air Force Eastern Test Range (AFETR)
Object type
Payload
Rocket body
Debris
Shape & HBR
Box + 2 Pan, 17.7 m
Radar Cross Section
36.964 m², Large (>1 m²)

Expand to show TLE details & history
Last TLE update: 17 hours ago

TLE from 17 hours ago
0 STARLINK-36524
1 67452U 26008H   26171.19206395  .00017486  00000-0  64311-3 0  9996
2 67452  43.0049 346.7832 0001683 266.1974  93.8685 15.27597607 25243
Epoch: 2026-06-20T04:36Z
TLE epoch observation values (Epoch: 2026-06-20T04:36:34.325Z)
Latitude
-0.00003°
Longitude
9.22993°
Altitude
482.85 km
Speed
7.626 km/s
True Right ascension
23h 07m 07s
True Declination
0° 00' 00"
Sunlit
Object was in daylight at epoch
Visualization orbit readout
Latitude
Unknown
Longitude
Unknown
Altitude
Unknown
Speed
Unknown
Apparent Right ascension
Unknown
Apparent Declination
Unknown
Sunlit
N/A
Visualization observer readout
Local Sidereal Time
08:42:09
Azimuth
Unknown
Elevation
Unknown
Doppler factor
Unknown
Orbital elements
Apogee altitude
486.096 km
Perigee altitude
483.786 km
Semi-major axis
6,863.078 km
Eccentricity
0.00017
Inclination
43.0049°
RAAN
346.7832°
Arg. of periapsis
266.1974°
True anomaly
93.88774°
Mean anomaly
93.8685°
Eccentric anomaly
93.87812°
Mean motion
3.81737 °/min
Orbital period
94.31 mins
BSTAR
0.00064311
Loading maneuver chart data...
Computing Atmospheric mass density...
Loading historical data...
Loading historical data...
Loading historical data...
Loading historical data...
Loading historical data...
Loading historical data...
Loading historical data...

Documentation

Showing up to 5 results
|